Spokane Fairchild, WA
on Tuesday, December 4, 2012

Tuesday
Previous Day Next Day
Daily Summary
 ActualAverage (KGEG)Record (KGEG)
Temperature
Mean Temperature °F / °C 29°F / -2°C  
Max Temperature 48°F / 9°C 34°F / 1°C 55°F / 12°C (1946)
Min Temperature 37°F / 3°C 24°F / -4°C 4°F / -15°C (1983)
Degree Days
Heating Degree Days 22 36  
Month to date heating degree days 142  
Since 1 July heating degree days 1809  
Cooling Degree Days 0 0  
Month to date cooling degree days 0  
Year to date cooling degree days 450  
Moisture
Dew Point 43°F / 6°C   
Average Humidity 98    
Maximum Humidity 100    
Minimum Humidity 66    
Precipitation
Precipitation 0.32 in / 8.13 cm 0.08 in / 2.03 cm 0.50 in / 1.27 cm (1881)
Month to date precipitation 0.34  
Year to date precipitation 14.60  
Snow
Snow 0.00 in / 0.00 cm 0.40 in / 1.02 cm 6.50 in / 16.51 cm (1996)
Month to date snowfall 1.6  
Since 1 July snowfall 9.1  
Snow Depth in / cm   
Wind
Wind Speed 13 mph / 21 km/h   
Max Wind Speed 23 mph / 37 km/h   
Max Gust Speed 29 mph / 47 km/h   
Visibility 10 miles / 15 kilometers   
Events Rain   

Key: T is trace of precipitation, MM is missing value
Source: NWS Daily Summary
Time(PST)TemperatureDew PointHumidity Pressure Visibility Wind DirectionWind SpeedGust SpeedPrecipitationEvents Conditions
12:58 AM 39.4°F / 4.1°C 39.4°F / 4.1°C 100% 29.88 in / 1011.9 hPa 10.0 miles / 16.1 kilometers ESE 9.2 mph / 14.8 km/h - N/A   Clear
1:58 AM 39.2°F / 4.0°C 39.0°F / 3.9°C 99% 29.85 in / 1010.8 hPa 10.0 miles / 16.1 kilometers ESE 6.9 mph / 11.1 km/h - N/A   Mostly Cloudy
2:24 AM 41.0°F / 5.0°C 37.4°F / 3.0°C 87% 29.82 in / 1009.7 hPa 10.0 miles / 16.1 kilometers SE 4.6 mph / 7.4 km/h - N/A   Partly Cloudy
2:58 AM 41.4°F / 5.2°C 35.4°F / 1.9°C 79% 29.83 in / 1010.0 hPa 10.0 miles / 16.1 kilometers ESE 8.1 mph / 13.0 km/h - 0.00 in / 0.0 cm   Scattered Clouds
2:59 AM 41.0°F / 5.0°C 35.6°F / 2.0°C 81% 29.79 in / 1008.7 hPa 10.0 miles / 16.1 kilometers ESE 5.8 mph / 9.3 km/h - N/A   Scattered Clouds
3:36 AM 42.8°F / 6.0°C 32.0°F / 0.0°C 66% 29.78 in / 1008.4 hPa 10.0 miles / 16.1 kilometers SE 11.5 mph / 18.5 km/h - N/A   Mostly Cloudy
3:51 AM 41.0°F / 5.0°C 37.4°F / 3.0°C 87% 29.79 in / 1008.7 hPa 10.0 miles / 16.1 kilometers SSE 19.6 mph / 31.5 km/h 27.6 mph / 44.4 km/h N/A Rain Light Rain
3:58 AM 41.5°F / 5.3°C 39.0°F / 3.9°C 91% 29.84 in / 1010.3 hPa 10.0 miles / 16.1 kilometers South 23.0 mph / 37.0 km/h 28.8 mph / 46.3 km/h 0.00 in / 0.0 cm Rain Light Rain
4:43 AM 39.2°F / 4.0°C 39.2°F / 4.0°C 100% 29.81 in / 1009.4 hPa 10.0 miles / 16.1 kilometers South 13.8 mph / 22.2 km/h - N/A Rain Light Rain
4:58 AM 38.3°F / 3.5°C 38.3°F / 3.5°C 100% 29.86 in / 1010.9 hPa 9.0 miles / 14.5 kilometers South 11.5 mph / 18.5 km/h - 0.06 in / 1.5 cm Rain Rain
5:23 AM 37.4°F / 3.0°C 37.4°F / 3.0°C 100% 29.79 in / 1008.7 hPa 10.0 miles / 16.1 kilometers SSE 13.8 mph / 22.2 km/h - N/A Rain Light Rain
5:28 AM 37.4°F / 3.0°C 37.4°F / 3.0°C 100% 29.80 in / 1009.0 hPa 8.0 miles / 12.9 kilometers SSE 11.5 mph / 18.5 km/h - N/A Rain Light Rain
5:33 AM 37.4°F / 3.0°C 37.4°F / 3.0°C 100% 29.79 in / 1008.7 hPa 7.0 miles / 11.3 kilometers SSE 16.1 mph / 25.9 km/h - N/A Rain Light Rain
5:48 AM 37.4°F / 3.0°C 37.4°F / 3.0°C 100% 29.79 in / 1008.7 hPa 7.0 miles / 11.3 kilometers SE 13.8 mph / 22.2 km/h - N/A Rain Light Rain
5:58 AM 37.4°F / 3.0°C 37.4°F / 3.0°C 100% 29.84 in / 1010.4 hPa 6.0 miles / 9.7 kilometers SE 11.5 mph / 18.5 km/h - 0.05 in / 1.3 cm Rain Light Rain
6:08 AM 37.4°F / 3.0°C 37.4°F / 3.0°C 100% 29.78 in / 1008.4 hPa 7.0 miles / 11.3 kilometers SE 15.0 mph / 24.1 km/h - N/A Rain Light Rain
6:58 AM 37.9°F / 3.3°C 37.9°F / 3.3°C 100% 29.82 in / 1009.7 hPa 10.0 miles / 16.1 kilometers SE 20.7 mph / 33.3 km/h 26.5 mph / 42.6 km/h 0.01 in / 0.3 cm Rain Light Rain
7:01 AM 37.4°F / 3.0°C 37.4°F / 3.0°C 100% 29.77 in / 1008.0 hPa 10.0 miles / 16.1 kilometers SE 17.3 mph / 27.8 km/h 26.5 mph / 42.6 km/h N/A   Overcast
7:09 AM 37.4°F / 3.0°C 37.4°F / 3.0°C 100% 29.77 in / 1008.0 hPa 10.0 miles / 16.1 kilometers SE 17.3 mph / 27.8 km/h 24.2 mph / 38.9 km/h N/A Rain Light Rain
7:19 AM 39.2°F / 4.0°C 39.2°F / 4.0°C 100% 29.77 in / 1008.0 hPa 10.0 miles / 16.1 kilometers SE 17.3 mph / 27.8 km/h 24.2 mph / 38.9 km/h N/A   Overcast
7:29 AM 39.2°F / 4.0°C 39.2°F / 4.0°C 100% 29.78 in / 1008.4 hPa 10.0 miles / 16.1 kilometers SE 15.0 mph / 24.1 km/h 24.2 mph / 38.9 km/h N/A   Overcast
7:39 AM 39.2°F / 4.0°C 39.2°F / 4.0°C 100% 29.78 in / 1008.4 hPa 10.0 miles / 16.1 kilometers South 12.7 mph / 20.4 km/h - N/A   Overcast
7:58 AM 39.4°F / 4.1°C 39.4°F / 4.1°C 100% 29.82 in / 1009.8 hPa 10.0 miles / 16.1 kilometers SSE 13.8 mph / 22.2 km/h - 0.00 in / 0.0 cm   Overcast
8:56 AM 41.0°F / 5.0°C 41.0°F / 5.0°C 100% 29.79 in / 1008.7 hPa 10.0 miles / 16.1 kilometers South 12.7 mph / 20.4 km/h 19.6 mph / 31.5 km/h N/A   Overcast
9:28 AM 42.8°F / 6.0°C 42.8°F / 6.0°C 100% 29.80 in / 1009.0 hPa 10.0 miles / 16.1 kilometers South 15.0 mph / 24.1 km/h - N/A   Overcast
9:33 AM 42.8°F / 6.0°C 42.8°F / 6.0°C 100% 29.80 in / 1009.0 hPa 10.0 miles / 16.1 kilometers South 12.7 mph / 20.4 km/h - N/A   Overcast
9:56 AM 42.8°F / 6.0°C 42.8°F / 6.0°C 100% 29.80 in / 1009.0 hPa 10.0 miles / 16.1 kilometers South 11.5 mph / 18.5 km/h - N/A   Overcast
10:05 AM 42.8°F / 6.0°C 42.8°F / 6.0°C 100% 29.80 in / 1009.0 hPa 10.0 miles / 16.1 kilometers South 15.0 mph / 24.1 km/h 21.9 mph / 35.2 km/h N/A   Overcast
10:56 AM 44.6°F / 7.0°C 44.6°F / 7.0°C 100% 29.79 in / 1008.7 hPa 10.0 miles / 16.1 kilometers South 16.1 mph / 25.9 km/h 23.0 mph / 37.0 km/h N/A   Overcast
11:33 AM 44.6°F / 7.0°C 44.6°F / 7.0°C 100% 29.78 in / 1008.4 hPa 9.0 miles / 14.5 kilometers South 13.8 mph / 22.2 km/h - N/A   Overcast
11:49 AM 46.4°F / 8.0°C 46.4°F / 8.0°C 100% 29.77 in / 1008.0 hPa 10.0 miles / 16.1 kilometers South 13.8 mph / 22.2 km/h - N/A   Overcast
11:56 AM 46.4°F / 8.0°C 46.4°F / 8.0°C 100% 29.77 in / 1008.0 hPa 10.0 miles / 16.1 kilometers SSE 12.7 mph / 20.4 km/h 20.7 mph / 33.3 km/h N/A   Overcast
12:08 PM 46.4°F / 8.0°C 46.4°F / 8.0°C 100% 29.78 in / 1008.4 hPa 10.0 miles / 16.1 kilometers South 15.0 mph / 24.1 km/h 20.7 mph / 33.3 km/h N/A   Overcast
12:17 PM 46.4°F / 8.0°C 46.4°F / 8.0°C 100% 29.78 in / 1008.4 hPa 10.0 miles / 16.1 kilometers South 13.8 mph / 22.2 km/h 20.7 mph / 33.3 km/h N/A   Overcast
12:29 PM 46.4°F / 8.0°C 46.4°F / 8.0°C 100% 29.77 in / 1008.0 hPa 10.0 miles / 16.1 kilometers South 12.7 mph / 20.4 km/h 23.0 mph / 37.0 km/h N/A   Overcast
12:40 PM 46.4°F / 8.0°C 46.4°F / 8.0°C 100% 29.76 in / 1007.7 hPa 10.0 miles / 16.1 kilometers South 16.1 mph / 25.9 km/h 24.2 mph / 38.9 km/h N/A   Overcast
12:56 PM 46.4°F / 8.0°C 46.4°F / 8.0°C 100% 29.76 in / 1007.7 hPa 10.0 miles / 16.1 kilometers South 18.4 mph / 29.6 km/h - N/A   Overcast
1:55 PM 48.2°F / 9.0°C 48.2°F / 9.0°C 100% 29.76 in / 1007.7 hPa 10.0 miles / 16.1 kilometers South 18.4 mph / 29.6 km/h 25.3 mph / 40.7 km/h N/A Rain Light Rain
1:56 PM 48.2°F / 9.0°C 48.2°F / 9.0°C 100% 29.76 in / 1007.7 hPa 10.0 miles / 16.1 kilometers South 20.7 mph / 33.3 km/h 26.5 mph / 42.6 km/h N/A Rain Light Rain
2:07 PM 46.4°F / 8.0°C 46.4°F / 8.0°C 100% 29.76 in / 1007.7 hPa 10.0 miles / 16.1 kilometers South 17.3 mph / 27.8 km/h 27.6 mph / 44.4 km/h N/A Rain Light Rain
2:10 PM 46.4°F / 8.0°C 46.4°F / 8.0°C 100% 29.75 in / 1007.3 hPa 10.0 miles / 16.1 kilometers South 20.7 mph / 33.3 km/h 27.6 mph / 44.4 km/h N/A   Overcast
2:11 PM 46.4°F / 8.0°C 46.4°F / 8.0°C 100% 29.75 in / 1007.3 hPa 10.0 miles / 16.1 kilometers South 18.4 mph / 29.6 km/h 27.6 mph / 44.4 km/h N/A   Overcast
2:29 PM 46.4°F / 8.0°C 46.4°F / 8.0°C 100% 29.76 in / 1007.7 hPa 10.0 miles / 16.1 kilometers South 17.3 mph / 27.8 km/h 24.2 mph / 38.9 km/h N/A   Overcast
3:04 PM 46.4°F / 8.0°C 46.4°F / 8.0°C 100% 29.77 in / 1008.0 hPa 10.0 miles / 16.1 kilometers South 16.1 mph / 25.9 km/h - N/A   Overcast
3:14 PM 46.4°F / 8.0°C 46.4°F / 8.0°C 100% 29.77 in / 1008.0 hPa 10.0 miles / 16.1 kilometers South 17.3 mph / 27.8 km/h - N/A   Overcast
3:30 PM 46.4°F / 8.0°C 46.4°F / 8.0°C 100% 29.77 in / 1008.0 hPa 10.0 miles / 16.1 kilometers South 12.7 mph / 20.4 km/h - N/A   Overcast
3:34 PM 46.4°F / 8.0°C 46.4°F / 8.0°C 100% 29.76 in / 1007.7 hPa 10.0 miles / 16.1 kilometers South 16.1 mph / 25.9 km/h 20.7 mph / 33.3 km/h N/A   Overcast
5:55 PM 45.9°F / 7.7°C 45.9°F / 7.7°C 100% 29.78 in / 1008.3 hPa 10.0 miles / 16.1 kilometers South 12.7 mph / 20.4 km/h - 0.02 in / 0.5 cm   Overcast
6:55 PM 46.4°F / 8.0°C 46.4°F / 8.0°C 100% 29.76 in / 1007.6 hPa 10.0 miles / 16.1 kilometers South 12.7 mph / 20.4 km/h 20.7 mph / 33.3 km/h 0.00 in / 0.0 cm Rain Light Rain
7:55 PM 45.5°F / 7.5°C 45.5°F / 7.5°C 100% 29.74 in / 1006.9 hPa 9.0 miles / 14.5 kilometers South 13.8 mph / 22.2 km/h - 0.01 in / 0.3 cm Rain Light Rain
8:58 PM 46.0°F / 7.8°C 46.0°F / 7.8°C 100% 29.71 in / 1006.0 hPa 10.0 miles / 16.1 kilometers South 16.1 mph / 25.9 km/h - 0.08 in / 2.0 cm Rain Light Rain
9:24 PM 46.4°F / 8.0°C 46.4°F / 8.0°C 100% 29.71 in / 1006.0 hPa 10.0 miles / 16.1 kilometers South 11.5 mph / 18.5 km/h - N/A Rain Light Rain
9:25 PM 46.4°F / 8.0°C 46.4°F / 8.0°C 100% 29.71 in / 1006.0 hPa 10.0 miles / 16.1 kilometers South 11.5 mph / 18.5 km/h - N/A Rain Light Rain
9:45 PM 46.4°F / 8.0°C 46.4°F / 8.0°C 100% 29.70 in / 1005.6 hPa 10.0 miles / 16.1 kilometers South 10.4 mph / 16.7 km/h - N/A Rain Light Rain
9:49 PM 46.4°F / 8.0°C 46.4°F / 8.0°C 100% 29.70 in / 1005.6 hPa 10.0 miles / 16.1 kilometers SSW 11.5 mph / 18.5 km/h - N/A Rain Light Rain
9:55 PM 46.0°F / 7.8°C 46.0°F / 7.8°C 100% 29.73 in / 1006.5 hPa 10.0 miles / 16.1 kilometers SSW 17.3 mph / 27.8 km/h - 0.02 in / 0.5 cm Rain Light Rain
9:56 PM 46.4°F / 8.0°C 46.4°F / 8.0°C 100% 29.70 in / 1005.6 hPa 10.0 miles / 16.1 kilometers SSW 15.0 mph / 24.1 km/h 20.7 mph / 33.3 km/h N/A Rain Light Rain
10:16 PM 46.4°F / 8.0°C 46.4°F / 8.0°C 100% 29.70 in / 1005.6 hPa 8.0 miles / 12.9 kilometers SSW 17.3 mph / 27.8 km/h 24.2 mph / 38.9 km/h N/A Rain Rain
10:21 PM 46.4°F / 8.0°C 46.4°F / 8.0°C 100% 29.69 in / 1005.3 hPa 8.0 miles / 12.9 kilometers SSW 19.6 mph / 31.5 km/h 23.0 mph / 37.0 km/h N/A Rain Rain
10:31 PM 46.4°F / 8.0°C 46.4°F / 8.0°C 100% 29.69 in / 1005.3 hPa 8.0 miles / 12.9 kilometers SSW 15.0 mph / 24.1 km/h - N/A Rain Light Rain
10:32 PM 46.4°F / 8.0°C 46.4°F / 8.0°C 100% 29.70 in / 1005.6 hPa 9.0 miles / 14.5 kilometers SSW 17.3 mph / 27.8 km/h - N/A   Overcast
10:35 PM 46.4°F / 8.0°C 46.4°F / 8.0°C 100% 29.69 in / 1005.3 hPa 10.0 miles / 16.1 kilometers SSW 15.0 mph / 24.1 km/h 24.2 mph / 38.9 km/h N/A Rain Light Rain
10:58 PM 46.6°F / 8.1°C 46.4°F / 8.0°C 99% 29.70 in / 1005.6 hPa 10.0 miles / 16.1 kilometers SSW 13.8 mph / 22.2 km/h 20.7 mph / 33.3 km/h 0.07 in / 1.8 cm Rain Light Rain
11:08 PM 46.4°F / 8.0°C 46.4°F / 8.0°C 100% 29.70 in / 1005.6 hPa 10.0 miles / 16.1 kilometers South 12.7 mph / 20.4 km/h - N/A Rain Light Rain
11:13 PM 46.4°F / 8.0°C 46.4°F / 8.0°C 100% 29.70 in / 1005.6 hPa 10.0 miles / 16.1 kilometers South 13.8 mph / 22.2 km/h - N/A   Overcast
11:31 PM 46.4°F / 8.0°C 46.4°F / 8.0°C 100% 29.70 in / 1005.6 hPa 10.0 miles / 16.1 kilometers SSW 15.0 mph / 24.1 km/h - N/A Rain Light Rain
11:58 PM 46.6°F / 8.1°C 46.6°F / 8.1°C 100% 29.70 in / 1005.6 hPa 10.0 miles / 16.1 kilometers SSW 11.5 mph / 18.5 km/h 23.0 mph / 37.0 km/h 0.00 in / 0.0 cm Rain Light Rain
Moon Phase
Dec. 04 Dec. 06 Dec. 13 Dec. 20 Dec. 28
Sunrise:07:22 AM (PST) Moon Rise:10:09 PM (PST)12/4
Sunset:03:59 PM (PST) Moon Set:11:03 AM (PST)12/4

Copyright © 2014 The Weather Underground, Inc.